Location: Peebles
(55.6412°N, 3.1714°W)
Time: 17:08:58
(UTC+00:00)

MOZHAYETS 4 - Pass Details

Date: 11 December 2023
Orbit: 654 x 672 km, 98.3° (Epoch: 03 March)

Event Time Altitude Azimuth Distance (km) Brightness Sun altitude
Exits shadow 17:52:40 - 8° (N) 2,865 10.7 -17.0°
Reaches altitude 10° 17:54:47 10° 356° (N) 2,121 10.2 -17.3°
Maximum altitude 17:58:27 24° 304° (NW) 1,396 9.8 -17.8°
Drops below altitude 10° 18:02:08 10° 251° (WSW) 2,111 11.6 -18.3°
Sets 18:04:41 0° 238° (WSW) 3,020 12.4 -18.7°
